Location: Arezzo
(43.4170°N, 11.8830°E)
Time: 08:37:37
(UTC+02:00)

STARLINK-2715 - Pass Details

Date: 24 June 2021
Orbit: 348 x 351 km, 53.0° (Epoch: 24 July)

Event Time Altitude Azimuth Distance (km) Brightness Sun altitude
Exits shadow 03:47:58 15° 153° (SSE) 1,061 4.8 -14.5°
Maximum altitude 03:48:48 17° 132° (SE) 1,000 4.9 -14.4°
Drops below altitude 10° 03:50:46 10° 90° (E) 1,317 6.1 -14.2°
Sets 03:53:14 0° 68° (ENE) 2,165 7.7 -13.9°
